Location: Cruquius
(52.3348°N, 4.6319°E)
Time: 22:00:15
(UTC+00:00)

NOSS 3-3 (C) - Pass Details

Date: 04 October 2021
Orbit: 801 x 1411 km, 63.4° (Epoch: 05 October)

Event Time Altitude Azimuth Distance (km) Brightness Sun altitude
Rises 18:48:24 0° 313° (NW) 3,976 8.3 -15.6°
Reaches altitude 10° 18:51:09 10° 306° (NW) 3,100 7.7 -16.0°
Maximum altitude 18:58:00 39° 241° (WSW) 1,829 5.8 -17.0°
Drops below altitude 10° 19:05:35 10° 177° (S) 3,428 6.6 -18.1°
Sets 19:08:47 0° 170° (S) 4,439 7.2 -18.6°
